OBJECT AB, 61760

Orbit data source: Space-Track

You're viewing an Uncataloged Satellite

Recently launched and/or uncataloged satellites may have evolving metadata. Metadata may include but not limited to: Owner, Maufacturer, Bus, Motor, and Mission.

OBJECT AB, 61760 is a satellite in SSO that was launched on Mon, 04 Nov 2024 UTC via a SOYUZ-2-1B launch vehicle from the Vostochny Cosmodrome (VOSTO). Unknown objects in Earth's orbit typically refer to objects detected orbiting the Earth but have not yet been identified or cataloged. These objects could be anything from previously untracked satellites, spent rocket stages, debris from satellite collisions, or even natural meteoroids temporarily captured by Earth's gravity.

Loading next visibility...
Identifier
61760, 2024-199AB
Orbit
SSO
Last TLE update
6 hours ago
Origin
Manufacturer
Sputniks
Mission
Operational Commercial Communications
Bus & Motor
CUBESAT 3U?, Unknown motor
Mass
3 kg wet, 3 kg dry
Launch date (UTC)
2024-11-04 (8 months ago)
Launch vehicle
SOYUZ-2-1B
Launch site
Vostochny Cosmodrome (VOSTO)
Object type
Unknown
Shape & HBR
Box, 0.3 m
Radar Cross Section
0.035 m², Small (<0.1 m²)

Expand to show TLE details & history

TLE from 6 hours ago
0 OBJECT AB
1 61760U 24199AB  25182.85758875  .00015182  00000-0  42857-3 0  9992
2 61760  97.3512  51.9250 0011252 106.7339 253.5140 15.36407994 83549
Epoch: 2025-07-01T20:34Z
TLE epoch observation values (Epoch: 2025-07-01T20:34:55.667Z)
Latitude
-0.00014°
Longitude
-176.95395°
Altitude
462.047 km
Speed
7.634 km/s
True Right ascension
03h 27m 42s
True Declination
0° 00' 00"
Sunlit
Object was in daylight at epoch
Visualization orbit readout
Latitude
-61.21141°
Longitude
-163.2025°
Altitude
487.83 km
Speed
7.616 km/s
Apparent Right ascension
03h 06m 12s
Apparent Declination
-51° 50' 33"
Sunlit
Object is in daylight
Visualization observer readout
Local Sidereal Time
14:14:59
Azimuth
212.312° SW
Elevation
-75.156°
Doppler factor
1
Orbital elements
Apogee altitude
461.37 km
Perigee altitude
445.996 km
Semi-major axis
6,831.82 km
Eccentricity
0.00113
Inclination
97.3512°
RAAN
51.925°
Arg. of periapsis
106.7339°
True anomaly
Unknown
Mean anomaly
253.514°
Eccentric anomaly
Unknown
Mean motion
3.8436 °/min
Orbital period
93.66 mins
BSTAR
0.00042857
Loading maneuver chart data...
Loading SW <> Apogee altitude chart data...
Loading historical data...
Loading historical data...
Loading historical data...
Loading historical data...
Loading historical data...
Loading historical data...
Loading historical data...

OBJECT AB Visibility forecast

Observer location: undefined°, undefined°

Span
Click to sort rows by Start time (UTC) header in descending order
Start Az.
Max El. time (UTC)
Max El. Az.
Max El.
End time (UTC)
End Az.
4 mins2025-07-02 03:24:53.740Z55.579° ENE2025-07-02 03:26:53.740Z99.525° ESE18.693°2025-07-02 03:28:53.740Z139.746° SSE
5 mins2025-07-02 15:28:53.740Z180.261° SSW2025-07-02 15:30:53.740Z281.158° WNW42.635°2025-07-02 15:33:53.740Z342.575° N
|